FW8285 Weather Reports


Display with metric or nautical units.
time (UTC)temp
F
wind
direction
speed
MPH
gust
MPH
rain 1hr
in
rain 24hr
in
rain mn
in
humidity
%
barometer
mb
20260505214541 61 243 3.0 8.0 0.01 0.02 0.02 86 1006.6
20260505213041 63 296 5.0 12.0 0.00 0.01 0.01 77 1006.4
20260505211546 64 283 2.0 10.0 0.00 0.01 0.01 73 1005.3
20260505210037 65 268 4.0 14.0 0.00 0.01 0.01 71 1004.9
20260505204537 67 318 6.0 16.0 0.00 0.01 0.01 66 1005.4
20260505203044 70 263 8.0 14.0 0.00 0.01 0.01 62 1004.3
20260505201542 72 273 3.0 9.0 0.00 0.01 0.01 60 1003.5
20260505200041 70 329 1.0 8.0 0.00 0.01 0.01 64 1003.5
20260505194544 69 298 2.0 9.0 0.00 0.01 0.01 66 1003.4
20260505193044 68 288 5.0 18.0 0.00 0.01 0.01 67 1003.0
20260505191550 74 252 9.0 20.0 0.00 0.01 0.01 52 1004.1
20260505190043 75 291 5.0 22.0 0.00 0.01 0.01 46 1002.8
20260505184543 77 277 6.0 17.0 0.00 0.01 0.01 41 1003.0
20260505183037 78 176 4.0 22.0 0.00 0.01 0.01 40 1002.7
20260505181537 79 153 3.0 13.0 0.00 0.01 0.01 41 1002.8
20260505180052 79 198 9.0 19.0 0.00 0.01 0.01 36 1002.9
20260505174605 79 154 6.0 17.0 0.00 0.01 0.01 38 1002.8
20260505173043 80 202 6.0 17.0 0.00 0.01 0.01 39 1003.1
20260505171540 80 298 6.0 15.0 0.00 0.01 0.01 39 1003.4
20260505170046 80 281 3.0 17.0 0.00 0.01 0.01 39 1003.8
20260505164541 80 187 4.0 15.0 0.00 0.01 0.01 40 1004.0
20260505163045 79 241 6.0 17.0 0.00 0.01 0.01 42 1003.9
20260505161548 79 243 11.0 22.0 0.00 0.01 0.01 42 1004.2
20260505153056 76 181 4.0 11.0 0.00 0.01 0.01 51 1004.9
20260505151545 74 180 3.0 12.0 0.00 0.01 0.01 53 1005.0
20260505124536 61 0 0.0 2.0 0.00 0.01 0.01 75 1006.0
20260505123056 61 0 0.0 2.0 0.00 0.01 0.01 75 1005.8
20260505121536 59 0 0.0 4.0 0.00 0.01 0.01 77 1006.1
20260505120045 58 0 0.0 5.0 0.01 0.01 0.01 78 1006.1
20260505114600 56 0 0.0 3.0 0.01 0.01 0.01 80 1006.2
20260505113040 55 0 1.0 6.0 0.01 0.01 0.01 84 1006.3
20260505111554 52 84 0.0 1.0 0.01 0.01 0.01 87 1006.0
20260505101544 51 0 0.0 2.0 0.00 0.00 0.00 85 1005.7
20260505100041 52 0 0.0 2.0 0.00 0.00 0.00 83 1005.8
20260505094539 52 42 0.0 2.0 0.00 0.00 0.00 77 1005.9
20260505093047 52 0 0.0 1.0 0.00 0.00 0.00 76 1005.6
20260505091543 52 0 0.0 2.0 0.00 0.00 0.00 75 1005.5
20260505090050 52 0 0.0 3.0 0.00 0.00 0.00 74 1005.4
20260505084541 53 0 0.0 3.0 0.00 0.00 0.00 74 1005.4
20260505083101 53 17 0.0 3.0 0.00 0.00 0.00 73 1005.6
20260505081547 53 0 0.0 3.0 0.00 0.00 0.00 74 1005.7
20260505080047 53 0 0.0 2.0 0.00 0.00 0.00 73 1005.7
20260505074545 53 0 0.0 2.0 0.00 0.00 0.00 73 1005.6
20260505073049 52 0 0.0 2.0 0.00 0.00 0.00 73 1005.5
20260505071542 52 0 0.0 2.0 0.00 0.00 0.00 73 1005.5
20260505070048 52 0 0.0 0.0 0.00 0.00 0.00 72 1005.5
20260505064554 52 17 0.0 2.0 0.00 0.00 0.00 71 1005.7
20260505063051 54 0 0.0 2.0 0.00 0.00 0.00 69 1005.8
20260505061544 56 0 0.0 0.0 0.00 0.00 0.00 65 1005.6
20260505060044 58 0 0.0 0.0 0.00 0.00 0.00 61 1005.7
20260505054551 59 0 0.0 3.0 0.00 0.00 0.00 58 1005.7
20260505053038 61 0 0.0 3.0 0.00 0.00 0.00 56 1005.8
20260505051541 62 267 0.0 9.0 0.00 0.00 0.00 55 1005.8
20260505041548 55 0 0.0 0.0 0.00 0.00 0.00 64 1005.7
20260505040048 54 0 0.0 0.0 0.00 0.00 0.00 68 1005.6
20260505034545 53 0 0.0 0.0 0.00 0.00 0.00 71 1005.6
20260505033042 52 0 0.0 0.0 0.00 0.00 0.00 73 1005.6
20260505031541 52 0 0.0 0.0 0.00 0.00 0.00 74 1005.6
20260505030038 52 0 0.0 0.0 0.00 0.00 0.00 73 1005.6
20260505024544 52 0 0.0 1.0 0.00 0.00 0.00 72 1005.6
20260505023046 53 0 0.0 2.0 0.00 0.00 0.00 70 1005.6
20260505021542 54 0 0.0 2.0 0.00 0.00 0.00 68 1005.7
20260505020041 56 0 0.0 2.0 0.00 0.00 0.00 64 1005.9
20260505014545 57 0 0.0 2.0 0.00 0.00 0.00 59 1005.8
20260505013040 58 0 0.0 1.0 0.00 0.00 0.00 58 1005.9
20260505011537 59 0 0.0 2.0 0.00 0.00 0.00 56 1005.8
20260505010047 58 0 0.0 0.0 0.00 0.00 0.00 57 1005.6
20260505004541 59 0 0.0 1.0 0.00 0.00 0.00 57 1005.4
20260505003040 60 0 0.0 0.0 0.00 0.00 0.00 55 1005.4
20260505001549 61 0 0.0 0.0 0.00 0.00 0.00 53 1005.2
20260505000042 63 0 0.0 0.0 0.00 0.00 0.00 52 1005.3
20260504234549 66 0 0.0 0.0 0.00 0.00 0.00 47 1005.2
20260504233042 68 0 0.0 0.0 0.00 0.00 0.00 44 1004.9
20260504231555 69 0 0.0 6.0 0.00 0.00 0.00 41 1004.8
20260504230040 69 275 2.0 9.0 0.00 0.00 0.00 40 1004.7
20260504224547 71 275 1.0 4.0 0.00 0.00 0.00 39 1004.6
20260504223043 71 290 3.0 11.0 0.00 0.00 0.00 38 1004.6
20260504221548 71 215 2.0 9.0 0.00 0.00 0.00 38 1004.5
20260504220038 70 262 1.0 7.0 0.00 0.00 0.00 42 1004.6